Location: Eaton Estates
(41.3089°N, 82.0057°W)
Time: 13:18:29
(UTC+00:00)

MetOp-B - Pass Details

Date: 17 June 2021
Orbit: 820 x 821 km, 98.7° (Epoch: 31 July)

Event Time Altitude Azimuth Distance (km) Brightness Sun altitude
Exits shadow 02:13:57 12° 158° (SSE) 2,267 5.9 -11.1°
Maximum altitude 02:18:55 76° 74° (ENE) 849 4.1 -11.8°
Drops below altitude 10° 02:24:17 10° 350° (N) 2,425 7.5 -12.4°
Sets 02:26:38 0° 349° (NNW) 3,362 8.4 -12.7°
